[[{"header":{"parameterUnit":"m.s-1","parameterCategory":1,"la1":30.2991,"la2":30.254,"lo1":-89.0895,"lo2":-89.0444,"dy":0.0017,"dx":0.0017,"nx":28,"ny":28,"refTime":"2024-04-17T21:00:00:Z","depth":0,"parameterNumber":2,"parameterNumberName":"U-component_of_WINDS"},"data":[0,0,0,0,0,0,0,0,0,0,0,0,0,0,0,0,0,0,0,0,0,0,0,0,0,0,0,0,0,0,0,0,0,0,0,0,0,0,0,0,0,0,0,0,0,0,0,0,0,0,0,0,0,0,0,0,0,0,-1.9364,-1.9364,0,-1.9362,-1.9362,-1.9362,-1.9325,-1.9324,-1.9323,-1.9322,-1.932,-1.9321,-1.9322,0,0,0,0,0,0,0,0,0,0,0,0,0,-1.9338,-1.9338,-1.9364,-1.9364,-1.9364,-1.9362,-1.9362,-1.9362,-1.9325,-1.9324,-1.9323,-1.9322,-1.932,-1.9321,-1.9322,0,0,0,0,0,0,0,0,0,0,0,0,0,-1.9344,-1.9338,-1.9364,-1.9345,-1.9344,-1.9362,-1.9362,-1.9362,-1.9325,-1.9324,-1.9322,-1.9321,-1.9319,-1.9321,-1.9322,-1.9358,0,0,-1.9326,-1.9326,0,0,0,0,0,0,0,0,-1.9343,-1.9345,-1.9348,-1.9347,-1.9345,-1.9342,-1.9351,-1.936,-1.9326,-1.9332,-1.9322,-1.932,-1.9329,-1.9329,-1.9332,-1.9357,-1.9357,-1.9326,-1.9326,-1.9327,-1.9327,0,0,0,0,0,0,0,-1.9343,-1.9344,-1.9363,-1.9348,-1.9346,-1.9337,-1.9337,-1.9353,-1.9338,-1.9332,-1.9329,-1.9329,-1.9327,-1.9331,-1.9331,-1.9357,-1.9326,-1.9327,-1.9328,-1.9328,-1.9413,-1.9414,0,0,0,0,0,0,-1.9345,-1.9344,-1.9363,-1.9363,-1.9341,-1.9339,-1.9338,-1.9344,-1.9338,-1.9336,-1.933,-1.9327,-1.9329,-1.933,-1.9331,-1.9372,-1.9327,-1.9328,-1.9329,-1.9411,-1.9413,-1.9415,0,0,0,0,0,0,-1.9345,-1.9347,-1.9363,-1.9353,-1.9354,-1.9341,-1.9348,-1.9345,-1.9348,-1.9337,-1.9334,-1.9336,-1.9328,-1.9329,-1.9351,-1.9372,-1.9329,-1.933,-1.9409,-1.9412,-1.9414,-1.9455,0,0,0,0,0,0,-1.9344,-1.9347,-1.936,-1.9354,-1.9355,-1.9383,-1.9349,-1.9346,-1.935,-1.9346,-1.9342,-1.934,-1.9327,-1.935,-1.9352,-1.9372,-1.9331,-1.9407,-1.941,-1.9413,-1.9452,-1.9458,-1.9464,0,0,0,0,0,-1.9343,-1.9372,-1.9361,-1.9363,-1.9371,-1.9384,-1.9385,-1.937,-1.9352,-1.9365,-1.9358,-1.934,-1.9369,-1.9352,-1.9355,-1.9376,-1.9406,-1.941,-1.9413,-1.9449,-1.9457,-1.9464,0,0,0,0,0,0,-1.9381,-1.9371,-1.9358,-1.9386,-1.9386,-1.9378,-1.9394,-1.9379,-1.9385,-1.9381,-1.9362,-1.9361,-1.9386,-1.9383,-1.9364,-1.941,-1.9384,-1.9389,-1.9411,-1.9418,-1.9424,-1.9424,-1.9332,0,0,0,0,0,-1.9393,-1.9404,-1.9395,-1.942,-1.9421,-1.9408,-1.9413,-1.9401,-1.9401,-1.9401,-1.9395,-1.9396,-1.9405,-1.9412,-1.942,-1.9452,-1.945,-1.9467,-1.9473,-1.9479,-1.9482,-1.9498,-1.9506,-1.9426,-1.9426,-1.9426,0,0,-1.9417,-1.9413,-1.9421,-1.9427,-1.9426,-1.9439,-1.9408,-1.9422,-1.9432,-1.9403,-1.9423,-1.942,-1.9419,-1.9446,-1.9458,-1.9444,-1.9504,-1.9483,-1.9487,-1.9488,-1.9503,-1.951,-1.9517,-1.9428,-1.9428,-1.9427,0,0,-1.9467,-1.9465,-1.9485,-1.9485,-1.9484,-1.9475,-1.9481,-1.9475,-1.9471,-1.9491,-1.947,-1.9481,-1.9498,-1.9498,-1.9501,-1.9552,-1.9535,-1.9555,-1.9587,-1.9603,-1.961,-1.9615,-1.9633,-1.964,-1.9559,-1.9559,-1.9559,0,-1.9496,-1.9514,-1.9498,-1.9514,-1.9517,-1.9493,-1.9513,-1.9514,-1.9516,-1.9519,-1.9505,-1.9525,-1.9523,-1.9549,-1.9562,-1.9565,-1.957,-1.9555,-1.961,-1.9615,-1.962,-1.9637,-1.9644,-1.9562,-1.9561,-1.9561,-1.9561,0,-1.9551,-1.9564,-1.9581,-1.9583,-1.9588,-1.9607,-1.9594,-1.9601,-1.959,-1.9583,-1.9604,-1.9601,-1.9607,-1.9613,-1.9602,-1.9639,-1.963,-1.9613,-1.9587,-1.9631,-1.9646,-1.9652,-1.9565,-1.9564,-1.9564,-1.9563,0,0,-1.9623,-1.9617,-1.9623,-1.9624,-1.9622,-1.9631,-1.9649,-1.9656,-1.9663,-1.9665,-1.9679,-1.9695,-1.9679,-1.9682,-1.9671,-1.9685,-1.9726,-1.9666,-1.9666,-1.9677,-1.9765,-1.9777,-1.9785,-1.9715,-1.9716,-1.9717,-1.9765,0,-1.9671,-1.97,-1.9686,-1.9717,-1.9729,-1.9706,-1.9721,-1.9722,-1.9716,-1.9726,-1.9719,-1.973,-1.9709,-1.9711,-1.9724,-1.9718,-1.9743,-1.9714,-1.9728,-1.9728,-1.9727,-1.9793,-1.9806,-1.9851,-1.9771,-1.9772,-1.9773,0,-1.973,-1.9735,-1.9767,-1.9762,-1.9767,-1.9781,-1.9786,-1.9795,-1.9796,-1.9791,-1.9794,-1.978,-1.9797,-1.9772,-1.9796,-1.9777,-1.9782,-1.978,-1.9781,-1.9781,-1.9752,-1.9794,-1.9866,-1.9872,-1.9782,-1.9782,-1.9781,0,-1.9779,-1.9794,-1.9814,-1.9816,-1.9812,-1.9822,-1.9821,-1.982,-1.9825,-1.983,-1.9833,-1.984,-1.9844,-1.985,-1.9838,-1.9821,-1.9863,-1.9837,-1.9859,-1.986,-1.9868,-1.9868,-1.9941,-1.9873,-1.9873,-1.9873,-1.9873,0,-1.9833,-1.9853,-1.9836,-1.9849,-1.9871,-1.9856,-1.9879,-1.9875,-1.9874,-1.9886,-1.9868,-1.9879,-1.9863,-1.9874,-1.9865,-1.9885,-1.9888,-1.9884,-1.9881,-1.9885,-1.9885,-1.9887,-1.9883,-1.9875,-1.9874,-1.9874,-1.9874,0,-1.989,-1.988,-1.9901,-1.9896,-1.9895,-1.9912,-1.9907,-1.9919,-1.9912,-1.9928,-1.9931,-1.992,-1.9932,-1.9921,-1.9931,-1.9925,-1.9953,-1.9946,-1.9953,-1.995,-1.9973,-1.9971,-2.0049,-2.0058,-1.9986,-1.9986,-1.9987,0,-1.9925,-1.994,-1.9936,-1.9943,-1.9943,-1.9954,-1.9959,-1.9945,-1.9951,-1.9953,-1.9965,-1.9974,-1.9981,-2.0,-1.9994,-2.0002,-1.9995,-2.0022,-1.9996,-1.9999,-1.9994,-1.9993,-1.9994,-2.0026,-2.0027,-2.0028,-2.0029,0,-1.9987,-1.9982,-1.999,-1.9996,-2.0003,-2.0008,-2.0011,-2.0018,-2.0003,-2.0011,-2.0022,-2.0028,-2.0039,-2.0048,-2.0055,-2.0054,-2.0039,-2.0037,-2.0042,-2.0046,-2.0049,-2.0047,-1.9966,-2.0035,-2.0034,-2.0034,-2.0034,-2.0033,-2.0034,-2.0046,-2.0046,-2.0056,-2.0057,-2.006,-2.0071,-2.0066,-2.0075,-2.0083,-2.0074,-2.0088,-2.0088,-2.0095,-2.0096,-2.0107,-2.0095,-2.0104,-2.0105,-2.0107,-2.011,-2.0048,-2.0108,-2.0108,-2.0108,-2.0108,-2.0107,0,-2.0095,-2.0093,-2.0103,-2.0108,-2.0116,-2.0101,-2.0104,-2.0112,-2.0124,-2.0126,-2.0133,-2.0146,-2.0156,-2.0151,-2.0159,-2.0169,-2.0162,-2.0171,-2.017,-2.017,-2.012,-2.0114,-2.0176,-2.0176,-2.0176,-2.0176,-2.0176,-2.0176,-2.0127,-2.0147,-2.0142,-2.0163,-2.0161,-2.0174,-2.0177,-2.018,-2.0182,-2.0197,-2.0205,-2.0202,-2.0201,-2.0209,-2.0217,-2.0216,-2.0219,-2.0231,-2.0227,-2.018,-2.0173,-2.0167,-2.0161,-2.0232,-2.0232,-2.0275,-2.0275,-2.0276]},{"header":{"parameterUnit":"m.s-1","parameterCategory":1,"la1":30.2991,"la2":30.254,"lo1":-89.0895,"lo2":-89.0444,"dy":0.0017,"dx":0.0017,"nx":28,"ny":28,"refTime":"2024-04-17T21:00:00:Z","depth":0,"parameterNumber":3,"parameterNumberName":"V-component_of_WINDS"},"data":[0,0,0,0,0,0,0,0,0,0,0,0,0,0,0,0,0,0,0,0,0,0,0,0,0,0,0,0,0,0,0,0,0,0,0,0,0,0,0,0,0,0,0,0,0,0,0,0,0,0,0,0,0,0,0,0,0,0,3.4539,3.4539,0,3.4517,3.4517,3.4517,3.4502,3.4502,3.4502,3.4502,3.4477,3.4476,3.4476,0,0,0,0,0,0,0,0,0,0,0,0,0,3.4568,3.4568,3.4539,3.4539,3.4539,3.4517,3.4517,3.4516,3.4502,3.4502,3.4502,3.4502,3.4477,3.4476,3.4476,0,0,0,0,0,0,0,0,0,0,0,0,0,3.4552,3.4567,3.4539,3.4529,3.4528,3.4517,3.4517,3.4516,3.4502,3.4502,3.4502,3.4502,3.4477,3.4476,3.4476,3.4472,0,0,3.4473,3.4472,0,0,0,0,0,0,0,0,3.4553,3.4551,3.4531,3.453,3.4529,3.4512,3.4518,3.4502,3.4502,3.4512,3.4502,3.4502,3.4489,3.4487,3.4483,3.4471,3.447,3.4473,3.4472,3.4472,3.4472,0,0,0,0,0,0,0,3.4554,3.4551,3.453,3.4531,3.4529,3.4525,3.4523,3.4515,3.4501,3.4511,3.451,3.4508,3.4488,3.4484,3.4482,3.447,3.4473,3.4472,3.4471,3.4471,3.4456,3.4456,0,0,0,0,0,0,3.4557,3.4552,3.4531,3.453,3.4541,3.4525,3.4522,3.4518,3.4501,3.4499,3.4508,3.4507,3.4485,3.4483,3.4481,3.4477,3.4472,3.4471,3.447,3.4456,3.4456,3.4456,0,0,0,0,0,0,3.4557,3.4555,3.4532,3.4541,3.4538,3.4524,3.452,3.4517,3.4513,3.4499,3.4496,3.4506,3.4485,3.4482,3.4475,3.4476,3.4471,3.447,3.4455,3.4456,3.4456,3.4469,0,0,0,0,0,0,3.4558,3.4555,3.4554,3.4541,3.4537,3.4527,3.452,3.4517,3.4512,3.4511,3.4496,3.4494,3.4485,3.4477,3.4474,3.4475,3.4469,3.4455,3.4455,3.4456,3.4468,3.4469,3.447,0,0,0,0,0,3.4559,3.4558,3.4554,3.4552,3.4536,3.4527,3.4525,3.4515,3.4512,3.4511,3.4502,3.4494,3.4477,3.4476,3.4473,3.4473,3.4455,3.4455,3.4456,3.4468,3.4469,3.447,0,0,0,0,0,0,3.457,3.4556,3.4551,3.4546,3.4538,3.4524,3.4522,3.4516,3.4508,3.4507,3.4495,3.4492,3.4486,3.4479,3.4479,3.447,3.4465,3.4465,3.4475,3.4476,3.4477,3.4479,3.4468,0,0,0,0,0,3.4572,3.4566,3.4554,3.455,3.4546,3.4535,3.4531,3.4524,3.4515,3.4511,3.4502,3.4493,3.4485,3.448,3.4472,3.4467,3.4464,3.4466,3.4467,3.4468,3.4468,3.4466,3.4467,3.4457,3.4457,3.4457,0,0,3.4575,3.4567,3.4564,3.4552,3.4545,3.454,3.4532,3.4526,3.4522,3.451,3.4503,3.4496,3.4485,3.4479,3.4476,3.4473,3.447,3.4469,3.447,3.4469,3.4466,3.4467,3.4468,3.4457,3.4457,3.4457,0,0,3.4578,3.4571,3.4568,3.4562,3.4552,3.4545,3.4544,3.4532,3.4527,3.452,3.4512,3.4506,3.4493,3.4486,3.4481,3.4484,3.4477,3.4481,3.4487,3.4485,3.4486,3.4486,3.4488,3.4489,3.4481,3.4481,3.4481,0,3.4583,3.4575,3.4566,3.4562,3.4557,3.4548,3.4544,3.4538,3.4526,3.4523,3.452,3.4505,3.4496,3.4489,3.449,3.4486,3.4485,3.4483,3.4487,3.4487,3.4488,3.4489,3.449,3.4482,3.4482,3.4482,3.4482,0,3.4582,3.4577,3.4575,3.4565,3.456,3.4556,3.4547,3.4543,3.4537,3.4531,3.4524,3.4514,3.4505,3.4503,3.4497,3.4495,3.4494,3.4489,3.4484,3.4489,3.449,3.4491,3.4483,3.4483,3.4483,3.4482,0,0,3.459,3.4577,3.4576,3.4572,3.4562,3.4557,3.4553,3.4545,3.4542,3.4535,3.4531,3.4521,3.4517,3.4511,3.4504,3.4503,3.4507,3.4498,3.4497,3.45,3.4505,3.4509,3.451,3.4502,3.4502,3.4502,3.4507,0,3.4592,3.4584,3.4577,3.4572,3.4568,3.456,3.4556,3.4549,3.4543,3.4538,3.4531,3.4525,3.452,3.4516,3.4514,3.4506,3.4507,3.4506,3.4499,3.4498,3.4502,3.451,3.4514,3.4518,3.4507,3.4507,3.4507,0,3.4592,3.4587,3.4582,3.4573,3.4571,3.4568,3.4561,3.4556,3.4549,3.4545,3.4539,3.4532,3.4528,3.4523,3.4517,3.4516,3.4513,3.4509,3.4509,3.4507,3.4503,3.451,3.4519,3.452,3.4507,3.4507,3.4507,0,3.4599,3.459,3.4587,3.4583,3.4573,3.4571,3.4567,3.4559,3.4555,3.4549,3.4547,3.454,3.4536,3.453,3.4522,3.452,3.4517,3.4511,3.4513,3.4513,3.4512,3.4512,3.4522,3.451,3.451,3.451,3.451,0,3.4602,3.4599,3.459,3.4587,3.4585,3.4577,3.4574,3.4569,3.4562,3.4559,3.4551,3.4548,3.4537,3.4533,3.4526,3.4522,3.452,3.4517,3.4515,3.4517,3.4518,3.4515,3.4514,3.451,3.451,3.451,3.451,0,3.4609,3.4602,3.4598,3.4589,3.4587,3.4585,3.4578,3.4575,3.457,3.4565,3.4564,3.4555,3.4549,3.4541,3.4532,3.4528,3.4525,3.4522,3.4528,3.4527,3.453,3.453,3.4537,3.4538,3.4526,3.4526,3.4526,0,3.4611,3.4609,3.4601,3.4598,3.4595,3.4591,3.4587,3.458,3.4577,3.4569,3.4568,3.4562,3.4557,3.4549,3.4541,3.4535,3.4532,3.4535,3.4531,3.4534,3.4532,3.4533,3.4533,3.4536,3.4536,3.4536,3.4536,0,3.4615,3.4613,3.4609,3.4604,3.4601,3.4596,3.4591,3.459,3.4581,3.4578,3.4573,3.457,3.4562,3.4557,3.455,3.4545,3.4539,3.4538,3.4538,3.454,3.4544,3.4543,3.4531,3.4537,3.4537,3.4537,3.4537,3.4537,3.462,3.4618,3.4613,3.4609,3.4605,3.4601,3.4599,3.4594,3.459,3.4584,3.458,3.4575,3.4569,3.456,3.4555,3.4552,3.4549,3.4549,3.4549,3.4549,3.4551,3.4545,3.455,3.455,3.455,3.455,3.455,0,3.4624,3.4621,3.4617,3.4612,3.4609,3.4606,3.4601,3.4598,3.4595,3.459,3.4586,3.4581,3.4576,3.4569,3.4564,3.4562,3.456,3.4561,3.4561,3.456,3.4553,3.4553,3.4564,3.4564,3.4564,3.4564,3.4564,3.4564,3.4626,3.4624,3.4621,3.4617,3.4613,3.461,3.4607,3.4604,3.46,3.4596,3.4592,3.4588,3.4582,3.4577,3.4573,3.4571,3.4569,3.4572,3.4569,3.4562,3.4561,3.4559,3.456,3.4571,3.4571,3.4576,3.4577,3.4577]}]]